FW1214 Weather Reports


time (UTC)temp
C
wind
direction
speed
KPH
gust
KPH
rain 1hr
cm
rain 24hr
cm
rain mn
cm
humidity
%
barometer
mb
20260504234550 26 48 0.0 0.0 0.00 0.00 0.00 26 1000.2
20260504233050 26 21 0.0 0.0 0.00 0.00 0.00 27 1000.0
20260504231549 27 355 0.0 0.0 0.00 0.00 0.00 24 1000.2
20260504230048 26 28 0.0 38.6 0.00 0.00 0.00 24 1000.3
20260504224547 26 127 8.0 41.8 0.00 0.00 0.00 25 1001.0
20260504223059 26 97 0.0 0.0 0.00 0.00 0.00 34 1000.1
20260504221544 27 71 0.0 0.0 0.00 0.00 0.00 34 1000.1
20260504220043 27 96 0.0 0.0 0.00 0.00 0.00 29 1000.2
20260504214541 27 67 0.0 0.0 0.00 0.00 0.00 32 1000.2
20260504213043 28 62 0.0 4.8 0.00 0.00 0.00 27 1000.3
20260504211604 28 55 0.0 11.3 0.00 0.00 0.00 27 1000.2
20260504210042 28 110 0.0 9.7 0.00 0.00 0.00 26 1000.5
20260504204534 28 78 0.0 12.9 0.00 0.00 0.00 27 1000.6
20260504203031 28 63 0.0 25.7 0.00 0.00 0.00 26 1000.9
20260504201530 28 124 0.0 12.9 0.00 0.00 0.00 27 1001.2
20260504200028 28 114 0.0 17.7 0.00 0.00 0.00 29 1001.4
20260504194526 28 75 0.0 4.8 0.00 0.00 0.00 30 1001.5
20260504193023 27 67 0.0 11.3 0.00 0.00 0.00 29 1001.8
20260504191525 27 32 0.0 12.9 0.00 0.00 0.00 30 1002.0
20260504190021 28 74 1.6 17.7 0.00 0.00 0.00 30 1002.3
20260504184523 27 81 0.0 0.0 0.00 0.00 0.00 32 1002.4
20260504183018 27 63 0.0 19.3 0.00 0.00 0.00 33 1002.3
20260504181516 28 29 0.0 6.4 0.00 0.00 0.00 31 1002.5
20260504180014 27 100 0.0 6.4 0.00 0.00 0.00 33 1002.5
20260504174513 27 75 0.0 8.0 0.00 0.00 0.00 34 1002.6
20260504173010 27 48 0.0 3.2 0.00 0.00 0.00 34 1002.6
20260504171509 26 349 0.0 1.6 0.00 0.00 0.00 38 1002.7
20260504081518 12 195 0.0 1.6 0.00 0.00 0.00 57 1002.9
20260504044548 14 79 0.0 0.0 0.00 0.00 0.00 66 1004.8
20260504043053 14 18 0.0 0.0 0.00 0.00 0.00 66 1004.9
20260504041548 15 7 0.0 0.0 0.00 0.00 0.00 63 1005.2
20260504040107 16 17 0.0 0.0 0.00 0.00 0.00 57 1005.3
20260504034547 18 4 0.0 0.0 0.00 0.00 0.00 47 1005.4
20260504033049 19 339 0.0 0.0 0.00 0.00 0.00 41 1005.5
20260504031555 19 145 0.0 0.0 0.00 0.00 0.00 41 1005.4
20260504030045 21 118 0.0 0.0 0.00 0.00 0.00 37 1005.2
20260504024545 22 12 0.0 0.0 0.00 0.00 0.00 33 1005.4
20260504023044 22 240 0.0 0.0 0.00 0.00 0.00 30 1005.2
20260504021543 20 328 0.0 0.0 0.00 0.00 0.00 35 1005.2
20260504020051 21 147 0.0 0.0 0.00 0.00 0.00 36 1004.9
20260504014543 21 152 0.0 0.0 0.00 0.00 0.00 33 1004.6
20260504013043 21 145 0.0 0.0 0.00 0.00 0.00 34 1004.5
20260504011541 22 139 0.0 0.0 0.00 0.00 0.00 36 1004.6
20260504010038 23 143 0.0 0.0 0.00 0.00 0.00 34 1004.7
20260504004536 25 125 0.0 0.0 0.00 0.00 0.00 28 1004.9
20260504003034 26 193 0.0 12.9 0.00 0.00 0.00 24 1005.0
20260504001538 26 138 0.0 1.6 0.00 0.00 0.00 23 1005.1
20260504000033 27 217 1.6 17.7 0.00 0.00 0.00 21 1005.2